Terminal Aerodrome Forecast
Issued by NWS

Home | Current Version | Previous Version | Text Only | Print | Product List | Glossary On
Versions: 1 2 3 4 5 6 7 8 9 10 11 12 13 14 15 16 17 18 19 20 21 22 23 24 25 26 27 28 29 30 31 32 33 34 35
000
FTUS45 KBOU 312321
TAFBJC
TAF
KBJC 312321Z 0100/0124 18007KT P6SM SCT080 BKN140
     FM010400 24007KT P6SM SCT140
     FM011200 VRB06KT P6SM FEW180
     FM011700 08006KT P6SM FEW150 SCT220=

USA.gov is the U.S. government's official web portal to all federal, state and local government web resources and services.